ABS-3A

Last updated on Jan. 20, 2020, 4:31 a.m. UTC

1 40424U 15010A   20019.41299399 -.00000031  00000-0  00000-0 0  9994
2 40424   0.0155  66.5978 0001311 130.6616  66.7599  1.00272829 17930
UTC
Height (km)
Latitude
Longitude
Inclination
Orbital Period
UTC large
Height (km)
Speed (km/s)
/
Latitude / Longitude
Inclination (degrees)
Orbital Period (minutes)
Azimuth
Elevation
Range (km)
Doppler Factor
iOS Compass Heading
iOS Angle

Next 30 passes for location: Hong Kong

Rise time Rise Azimuth (degrees) Set time Set Azimuth (degrees) Duration Max altitude (degrees)

No matching passes for this satellites